[[{"header":{"parameterUnit":"m.s-1","parameterCategory":1,"la1":30.2991,"la2":30.254,"lo1":-89.0895,"lo2":-89.0444,"dy":0.0017,"dx":0.0017,"nx":28,"ny":28,"refTime":"2025-04-25T09:00:00:Z","depth":0,"parameterNumber":2,"parameterNumberName":"U-component_of_WINDS"},"data":[0,0,0,0,0,0,0,0,0,0,0,0,0,0,0,0,0,0,0,0,0,0,0,0,0,0,0,0,0,0,0,0,0,0,0,0,0,0,0,0,0,0,0,0,0,0,0,0,0,0,0,0,0,0,0,0,0,0,-0.7954,-0.7953,0,-0.7858,-0.7857,-0.7856,-0.7794,-0.7793,-0.7793,-0.7793,-0.7696,-0.7694,-0.7692,0,0,0,0,0,0,0,0,0,0,0,0,0,-0.8086,-0.8084,-0.7954,-0.7953,-0.7951,-0.7858,-0.7857,-0.7856,-0.7794,-0.7793,-0.7793,-0.7793,-0.7697,-0.7694,-0.7691,0,0,0,0,0,0,0,0,0,0,0,0,0,-0.8014,-0.8084,-0.7954,-0.7909,-0.7904,-0.7858,-0.7857,-0.7855,-0.7794,-0.7793,-0.7793,-0.7792,-0.7698,-0.7694,-0.7691,-0.7682,0,0,-0.7681,-0.7679,0,0,0,0,0,0,0,0,-0.8018,-0.8009,-0.7917,-0.7912,-0.7907,-0.7837,-0.7868,-0.7797,-0.7794,-0.7836,-0.7793,-0.7792,-0.7744,-0.7736,-0.772,-0.7678,-0.7674,-0.7681,-0.7679,-0.7677,-0.7676,0,0,0,0,0,0,0,-0.8023,-0.8013,-0.7916,-0.7916,-0.791,-0.7895,-0.7884,-0.7854,-0.7794,-0.7832,-0.7828,-0.7817,-0.7741,-0.7723,-0.7717,-0.7672,-0.7681,-0.7678,-0.7676,-0.7674,-0.762,-0.762,0,0,0,0,0,0,-0.8035,-0.8017,-0.7919,-0.7913,-0.7962,-0.7893,-0.7881,-0.786,-0.7794,-0.7784,-0.7818,-0.7815,-0.7729,-0.7721,-0.7713,-0.7699,-0.7677,-0.7674,-0.7672,-0.7619,-0.762,-0.762,0,0,0,0,0,0,-0.8038,-0.8027,-0.7923,-0.7964,-0.795,-0.7892,-0.7869,-0.7859,-0.7841,-0.7783,-0.7772,-0.781,-0.7728,-0.7718,-0.7691,-0.7694,-0.7673,-0.767,-0.7618,-0.7619,-0.762,-0.7669,0,0,0,0,0,0,-0.8042,-0.8028,-0.8023,-0.7964,-0.7948,-0.7901,-0.7869,-0.7857,-0.7835,-0.783,-0.7774,-0.7764,-0.7727,-0.7696,-0.7687,-0.7689,-0.7667,-0.7618,-0.7619,-0.762,-0.7667,-0.7672,-0.7676,0,0,0,0,0,-0.8047,-0.8041,-0.8023,-0.8012,-0.794,-0.7901,-0.7892,-0.7849,-0.7836,-0.7831,-0.7794,-0.7766,-0.7696,-0.7694,-0.7683,-0.7685,-0.7617,-0.7619,-0.762,-0.7665,-0.7671,-0.7676,0,0,0,0,0,0,-0.8101,-0.8032,-0.8012,-0.7986,-0.795,-0.7891,-0.7883,-0.7856,-0.7823,-0.782,-0.7769,-0.7757,-0.7735,-0.7707,-0.7706,-0.7674,-0.7653,-0.7653,-0.7692,-0.7696,-0.7701,-0.7707,-0.7664,0,0,0,0,0,-0.8111,-0.8084,-0.8025,-0.8009,-0.7992,-0.7941,-0.7922,-0.7893,-0.7853,-0.7838,-0.7799,-0.7762,-0.7732,-0.7713,-0.7682,-0.7664,-0.7651,-0.766,-0.7665,-0.7668,-0.7668,-0.7656,-0.766,-0.7624,-0.7624,-0.7624,0,0,-0.8129,-0.8088,-0.8074,-0.8019,-0.7987,-0.7961,-0.7928,-0.7902,-0.7883,-0.7834,-0.7805,-0.7776,-0.7732,-0.7709,-0.7697,-0.7686,-0.7675,-0.767,-0.7673,-0.767,-0.7658,-0.7661,-0.7664,-0.7625,-0.7625,-0.7625,0,0,-0.8149,-0.8116,-0.8098,-0.8068,-0.802,-0.7987,-0.7983,-0.7928,-0.7907,-0.7878,-0.7841,-0.7818,-0.7767,-0.7737,-0.7716,-0.7728,-0.77,-0.772,-0.7741,-0.7731,-0.7734,-0.7736,-0.774,-0.7742,-0.772,-0.772,-0.772,0,-0.8178,-0.8136,-0.8093,-0.8069,-0.8046,-0.8001,-0.7984,-0.7957,-0.7902,-0.7888,-0.7876,-0.7812,-0.778,-0.7749,-0.7753,-0.7737,-0.7731,-0.7724,-0.7737,-0.7739,-0.774,-0.7743,-0.7745,-0.7722,-0.7722,-0.7722,-0.7722,0,-0.8174,-0.8147,-0.8138,-0.8087,-0.8063,-0.8043,-0.7997,-0.7979,-0.7953,-0.7921,-0.7893,-0.7853,-0.7813,-0.7805,-0.7779,-0.7772,-0.7766,-0.7747,-0.7725,-0.7747,-0.7749,-0.775,-0.7726,-0.7725,-0.7724,-0.7724,0,0,-0.8222,-0.8148,-0.8146,-0.8122,-0.8069,-0.8047,-0.8026,-0.7987,-0.7973,-0.7938,-0.7919,-0.7879,-0.7861,-0.7836,-0.7807,-0.7799,-0.7811,-0.778,-0.7778,-0.7786,-0.78,-0.7814,-0.7816,-0.7794,-0.7794,-0.7794,-0.7804,0,-0.8233,-0.8191,-0.8152,-0.8124,-0.8099,-0.8058,-0.804,-0.8006,-0.7977,-0.7952,-0.792,-0.7892,-0.7871,-0.7856,-0.7846,-0.7812,-0.7813,-0.7811,-0.7775,-0.7775,-0.7785,-0.7817,-0.783,-0.7841,-0.7804,-0.7804,-0.7804,0,-0.8239,-0.8205,-0.8175,-0.8125,-0.8113,-0.8097,-0.8059,-0.8036,-0.7998,-0.7977,-0.7952,-0.7921,-0.7898,-0.7882,-0.785,-0.7849,-0.7833,-0.7815,-0.7814,-0.7807,-0.7789,-0.7809,-0.7844,-0.7845,-0.7805,-0.7805,-0.7805,0,-0.8276,-0.8224,-0.8199,-0.8181,-0.8122,-0.8112,-0.8087,-0.8048,-0.8028,-0.7996,-0.7982,-0.7948,-0.7929,-0.7905,-0.7867,-0.7858,-0.7839,-0.7819,-0.7821,-0.7822,-0.7816,-0.7817,-0.7847,-0.781,-0.781,-0.781,-0.781,0,-0.829,-0.8273,-0.8215,-0.8199,-0.818,-0.8137,-0.8119,-0.8091,-0.8057,-0.8036,-0.8,-0.7982,-0.7934,-0.791,-0.7881,-0.7859,-0.7851,-0.7834,-0.7826,-0.7836,-0.7838,-0.7823,-0.7821,-0.781,-0.781,-0.781,-0.781,0,-0.8327,-0.8287,-0.8257,-0.8205,-0.8192,-0.818,-0.8135,-0.8119,-0.809,-0.8064,-0.8056,-0.8009,-0.798,-0.794,-0.7899,-0.7879,-0.786,-0.7849,-0.7873,-0.7868,-0.7872,-0.7871,-0.7892,-0.7892,-0.7857,-0.7857,-0.7857,0,-0.8337,-0.8323,-0.827,-0.8253,-0.823,-0.8204,-0.8183,-0.8142,-0.8122,-0.8078,-0.8068,-0.8036,-0.8008,-0.7963,-0.7926,-0.7894,-0.7881,-0.789,-0.7876,-0.7886,-0.7879,-0.788,-0.7878,-0.7893,-0.7894,-0.7894,-0.7894,0,-0.8361,-0.8342,-0.8314,-0.8279,-0.8255,-0.8226,-0.8195,-0.8184,-0.8137,-0.8117,-0.8086,-0.8064,-0.8022,-0.7991,-0.7955,-0.7931,-0.7905,-0.79,-0.7899,-0.7907,-0.7921,-0.7913,-0.7881,-0.7899,-0.7898,-0.7898,-0.7898,-0.7898,-0.8383,-0.8369,-0.833,-0.83,-0.8272,-0.8245,-0.8228,-0.8197,-0.817,-0.8132,-0.811,-0.808,-0.8044,-0.7993,-0.7971,-0.7947,-0.7937,-0.7935,-0.7934,-0.7934,-0.7937,-0.7927,-0.7941,-0.7941,-0.7941,-0.7941,-0.794,0,-0.8404,-0.8377,-0.835,-0.8308,-0.8285,-0.8263,-0.8229,-0.8211,-0.8185,-0.8153,-0.8127,-0.8093,-0.8063,-0.8025,-0.7992,-0.7981,-0.7969,-0.7974,-0.7973,-0.7968,-0.7949,-0.7952,-0.7985,-0.7985,-0.7985,-0.7985,-0.7985,-0.7985,-0.8411,-0.8386,-0.8364,-0.8326,-0.8299,-0.8269,-0.8251,-0.8226,-0.8201,-0.8164,-0.8139,-0.8114,-0.808,-0.8046,-0.8018,-0.8008,-0.7997,-0.8006,-0.7992,-0.7974,-0.7969,-0.7966,-0.7969,-0.8004,-0.8004,-0.8013,-0.8013,-0.8013]},{"header":{"parameterUnit":"m.s-1","parameterCategory":1,"la1":30.2991,"la2":30.254,"lo1":-89.0895,"lo2":-89.0444,"dy":0.0017,"dx":0.0017,"nx":28,"ny":28,"refTime":"2025-04-25T09:00:00:Z","depth":0,"parameterNumber":3,"parameterNumberName":"V-component_of_WINDS"},"data":[0,0,0,0,0,0,0,0,0,0,0,0,0,0,0,0,0,0,0,0,0,0,0,0,0,0,0,0,0,0,0,0,0,0,0,0,0,0,0,0,0,0,0,0,0,0,0,0,0,0,0,0,0,0,0,0,0,0,3.0331,3.0332,0,3.0385,3.0385,3.0386,3.0418,3.0418,3.0418,3.0418,3.047,3.0471,3.0472,0,0,0,0,0,0,0,0,0,0,0,0,0,3.0253,3.0254,3.0331,3.0332,3.0333,3.0384,3.0385,3.0386,3.0417,3.0418,3.0418,3.0418,3.0469,3.0471,3.0472,0,0,0,0,0,0,0,0,0,0,0,0,0,3.0295,3.0255,3.0331,3.0355,3.0357,3.0384,3.0385,3.0386,3.0417,3.0418,3.0418,3.0418,3.0469,3.0471,3.0473,3.048,0,0,3.0478,3.0479,0,0,0,0,0,0,0,0,3.0292,3.0298,3.035,3.0353,3.0356,3.0395,3.0377,3.0417,3.0417,3.0394,3.0418,3.0418,3.0444,3.0448,3.0458,3.0482,3.0484,3.0478,3.048,3.048,3.0481,0,0,0,0,0,0,0,3.0289,3.0295,3.0352,3.0351,3.0355,3.0361,3.0368,3.0385,3.0417,3.0397,3.0399,3.0405,3.0446,3.0456,3.0459,3.0485,3.0478,3.048,3.0481,3.0482,3.0517,3.0516,0,0,0,0,0,0,3.0283,3.0293,3.0351,3.0354,3.0324,3.0363,3.0369,3.0382,3.0417,3.0423,3.0405,3.0406,3.0453,3.0457,3.0461,3.0472,3.048,3.0482,3.0483,3.0517,3.0517,3.0516,0,0,0,0,0,0,3.0281,3.0288,3.0348,3.0324,3.0332,3.0364,3.0377,3.0383,3.0393,3.0424,3.0429,3.0409,3.0453,3.0459,3.0475,3.0474,3.0483,3.0485,3.0517,3.0517,3.0516,3.0492,0,0,0,0,0,0,3.0279,3.0287,3.0291,3.0324,3.0333,3.0362,3.0377,3.0384,3.0396,3.0399,3.0429,3.0434,3.0454,3.0472,3.0477,3.0477,3.0486,3.0517,3.0517,3.0517,3.0494,3.0491,3.049,0,0,0,0,0,3.0276,3.0282,3.0291,3.0298,3.0339,3.0362,3.0367,3.039,3.0396,3.04,3.0419,3.0433,3.0473,3.0473,3.0479,3.0479,3.0517,3.0517,3.0517,3.0494,3.0492,3.049,0,0,0,0,0,0,3.0248,3.0287,3.0298,3.0314,3.0335,3.0367,3.0373,3.0387,3.0405,3.0407,3.0433,3.044,3.0453,3.0468,3.0467,3.0487,3.0497,3.0497,3.0478,3.0476,3.0474,3.047,3.0488,0,0,0,0,0,3.0243,3.026,3.0292,3.0304,3.0314,3.0341,3.0352,3.0368,3.039,3.0398,3.0419,3.0439,3.0456,3.0466,3.0484,3.0495,3.0502,3.0498,3.0496,3.0494,3.0495,3.0502,3.05,3.0515,3.0515,3.0515,0,0,3.0235,3.0258,3.0267,3.0299,3.0317,3.0332,3.0348,3.0364,3.0375,3.04,3.0418,3.0433,3.0457,3.0471,3.0478,3.0483,3.0492,3.0494,3.0492,3.0494,3.0501,3.05,3.0498,3.0515,3.0515,3.0515,0,0,3.0227,3.0246,3.0258,3.0275,3.0302,3.032,3.0322,3.0353,3.0365,3.0382,3.0401,3.0414,3.0443,3.0459,3.0471,3.0467,3.0481,3.0472,3.0462,3.0468,3.0467,3.0466,3.0465,3.0464,3.0472,3.0472,3.0472,0,3.0212,3.0237,3.0262,3.0276,3.0289,3.0313,3.0324,3.034,3.037,3.0378,3.0384,3.042,3.0437,3.0455,3.0454,3.0463,3.0466,3.0469,3.0465,3.0465,3.0464,3.0463,3.0462,3.0471,3.0471,3.0471,3.0471,0,3.0218,3.0235,3.0241,3.0271,3.0284,3.0297,3.0322,3.0333,3.0346,3.0364,3.038,3.0402,3.0424,3.0429,3.0443,3.0448,3.0451,3.046,3.047,3.0461,3.0461,3.046,3.0469,3.0469,3.047,3.047,0,0,3.0195,3.0238,3.0239,3.0253,3.0283,3.0296,3.0309,3.0331,3.034,3.0359,3.0371,3.0394,3.0402,3.0416,3.0431,3.0436,3.0432,3.0445,3.0446,3.0442,3.0439,3.0432,3.0432,3.044,3.044,3.044,3.0437,0,3.0192,3.0218,3.024,3.0258,3.0273,3.0295,3.0306,3.0325,3.0341,3.0355,3.0372,3.0388,3.0399,3.0407,3.0413,3.0431,3.0432,3.0431,3.045,3.0451,3.0445,3.0431,3.0424,3.042,3.0437,3.0437,3.0437,0,3.0193,3.0212,3.0232,3.026,3.0267,3.0277,3.0298,3.0312,3.0334,3.0345,3.0359,3.0375,3.0388,3.0396,3.0414,3.0414,3.0422,3.0432,3.0432,3.0436,3.0444,3.0435,3.042,3.0419,3.0437,3.0437,3.0437,0,3.0174,3.0205,3.0221,3.0231,3.0265,3.0271,3.0285,3.0307,3.0318,3.0336,3.0344,3.0363,3.0373,3.0387,3.0407,3.0411,3.0423,3.0433,3.0432,3.0432,3.0435,3.0434,3.0422,3.0439,3.0439,3.0439,3.0439,0,3.0169,3.018,3.0213,3.0223,3.0235,3.0259,3.027,3.0286,3.0305,3.0317,3.0336,3.0346,3.0372,3.0385,3.04,3.0413,3.0418,3.0426,3.043,3.0425,3.0424,3.0432,3.0433,3.0439,3.0439,3.0439,3.0439,0,3.0152,3.0174,3.0192,3.0222,3.023,3.0238,3.0263,3.0272,3.0288,3.0303,3.0308,3.0333,3.035,3.0371,3.0394,3.0404,3.0415,3.0421,3.0408,3.0411,3.0409,3.0409,3.0402,3.0402,3.0418,3.0418,3.0418,0,3.0147,3.0156,3.0187,3.0197,3.0211,3.0226,3.0238,3.0261,3.0272,3.0297,3.0303,3.0321,3.0337,3.0362,3.0382,3.0399,3.0406,3.0402,3.0409,3.0403,3.0406,3.0406,3.0406,3.04,3.04,3.04,3.04,0,3.0137,3.0148,3.0165,3.0185,3.0199,3.0216,3.0234,3.024,3.0266,3.0278,3.0296,3.0308,3.0331,3.0349,3.0368,3.0381,3.0395,3.0397,3.0398,3.0393,3.0386,3.039,3.0404,3.0397,3.0398,3.0398,3.0398,3.0398,3.0127,3.0136,3.0158,3.0176,3.0192,3.0208,3.0218,3.0236,3.0251,3.0273,3.0284,3.0301,3.0321,3.0349,3.0361,3.0374,3.0379,3.038,3.0381,3.0381,3.0379,3.0383,3.0378,3.0378,3.0378,3.0378,3.0378,0,3.0118,3.0134,3.015,3.0174,3.0188,3.0199,3.0219,3.0229,3.0245,3.0262,3.0277,3.0297,3.0314,3.0334,3.0352,3.0358,3.0364,3.0362,3.0362,3.0365,3.0374,3.0372,3.0357,3.0357,3.0357,3.0357,3.0357,3.0357,3.0115,3.0131,3.0144,3.0167,3.0182,3.0199,3.021,3.0224,3.0238,3.0259,3.0274,3.0287,3.0305,3.0325,3.034,3.0345,3.0351,3.0347,3.0354,3.0362,3.0364,3.0366,3.0364,3.0348,3.0348,3.0344,3.0344,3.0344]}]]